Weather History for Lancaster, PA

Change the Weather History Date:

Sunday, January 7, 2001

  Actual Average Record
Temperature  
Mean Temperature 30 °F -  
Max Temperature 39 °F 42 °F 64 °F (1998)
Min Temperature 21 °F 26 °F 0 °F (2014)
Degree Days  
Heating Degree Days 35    
Moisture  
Dew Point 24 °F    
Average Humidity 75    
Maximum Humidity 88    
Minimum Humidity 57    
Precipitation  
Precipitation 0.00 in - - ()
Sea Level Pressure  
Sea Level Pressure 29.85 in    
Wind  
Wind Speed 3 mph (East)    
Max Wind Speed 6 mph    
Max Gust Speed -    
Visibility 8 miles    
Events      
Averages and records for this station are not official NWS values.
T = Trace of Precipitation, MM = Missing Value Source: NWS Daily Summary

Daily Weather History Graph

Daily Weather History Graph

Search for Another Location

Airport:

Trip Planner

Search our weather history database for the weather conditions in past years. The results will help you decide how hot, cold, wet, or windy it might be!

Date:

Astronomy

Jan. 07, 2001 Rise Set
Actual Time 7:27 AM EST 4:55 PM EST
Civil Twilight 6:57 AM EST 5:26 PM EST
Nautical Twilight 6:23 AM EST 5:59 PM EST
Astronomical Twilight 5:50 AM EST 6:32 PM EST
Moon 2:56 PM EST (1/7) 4:55 AM EST (1/7)
Length of Visible Light 10h 28m
Length of Day
9h 28m
Waxing Gibbous, 93% of the Moon is Illuminated
Jan 7
Waxing Gibbous
Jan 9
Full
Jan 16
Last Quarter
Jan 24
New
Feb 1
First Quarter

Hourly Weather History & Observations

Time (EST) Temp. Windchill Dew Point Humidity Pressure Visibility Wind Dir Wind Speed Gust Speed Precip Events Conditions
12:53 AM 23.0 °F 17.0 °F 19.9 °F 88% 29.82 in 10.0 mi ENE 4.6 mph - N/A   Mostly Cloudy
1:53 AM 21.0 °F 16.2 °F 18.0 °F 88% 29.82 in 8.0 mi ENE 3.5 mph - N/A   Overcast
3:53 AM 24.1 °F 19.7 °F 19.9 °F 84% 29.83 in 8.0 mi NE 3.5 mph - N/A   Overcast
4:53 AM 24.1 °F 19.7 °F 19.0 °F 81% 29.83 in 9.0 mi East 3.5 mph - N/A   Overcast
5:53 AM 24.1 °F 18.2 °F 21.0 °F 88% 29.84 in 7.0 mi East 4.6 mph - N/A   Overcast
6:53 AM 25.0 °F 20.7 °F 21.9 °F 88% 29.85 in 7.0 mi ESE 3.5 mph - N/A   Overcast
7:53 AM 27.0 °F - 23.0 °F 85% 29.85 in 7.0 mi Calm Calm - N/A   Overcast
8:53 AM 28.0 °F - 23.0 °F 81% 29.86 in 10.0 mi Calm Calm - N/A   Scattered Clouds
9:53 AM 30.9 °F - 23.0 °F 72% 29.87 in 8.0 mi Calm Calm - N/A   Clear
10:53 AM 34.0 °F - 24.1 °F 67% 29.86 in 10.0 mi Calm Calm - N/A   Clear
11:53 AM 37.0 °F - 24.1 °F 59% 29.85 in 9.0 mi Calm Calm - N/A   Clear
12:53 PM 39.0 °F - 25.0 °F 57% 29.83 in 8.0 mi Calm Calm - N/A   Clear
1:53 PM 39.0 °F 35.7 °F 26.1 °F 60% 29.82 in 8.0 mi WNW 4.6 mph - N/A   Clear
2:53 PM 39.0 °F 36.8 °F 28.0 °F 65% 29.82 in 10.0 mi East 3.5 mph - N/A   Clear
3:53 PM 37.9 °F 35.5 °F 27.0 °F 65% 29.83 in 8.0 mi East 3.5 mph - N/A   Clear
4:53 PM 37.9 °F 34.4 °F 27.0 °F 65% 29.84 in 8.0 mi SE 4.6 mph - N/A   Partly Cloudy
5:53 PM 36.0 °F 32.1 °F 28.0 °F 73% 29.85 in 9.0 mi East 4.6 mph - N/A   Mostly Cloudy
6:53 PM 36.0 °F 31.1 °F 27.0 °F 70% 29.86 in 9.0 mi ENE 5.8 mph - N/A   Partly Cloudy
7:53 PM 35.1 °F 32.2 °F 27.0 °F 72% 29.87 in 8.0 mi East 3.5 mph - N/A   Scattered Clouds
8:53 PM 35.1 °F 32.2 °F 26.1 °F 70% 29.87 in 7.0 mi ENE 3.5 mph - N/A   Partly Cloudy
9:53 PM 33.1 °F 30.0 °F 28.0 °F 82% 29.88 in 6.0 mi SE 3.5 mph - N/A   Haze
10:53 PM 32.0 °F 26.4 °F 27.0 °F 82% 29.87 in 6.0 mi ENE 5.8 mph - N/A   Haze
11:53 PM 33.1 °F 27.7 °F 26.1 °F 75% 29.88 in 8.0 mi ENE 5.8 mph - N/A   Clear